Weather History for Litchfield, MN

Change the Weather History Date:

Friday, September 27, 2013

  Actual Average Record
Temperature  
Mean Temperature 74 °F -  
Max Temperature 82 °F 69 °F 92 °F (1956)
Min Temperature 66 °F 43 °F 30 °F (1967)
Cooling Degree Days 9    
Growing Degree Days 24 (Base 50)    
Moisture  
Dew Point 63 °F    
Average Humidity 71    
Maximum Humidity 94    
Minimum Humidity 45    
Precipitation  
Precipitation 0.00 in - - ()
Sea Level Pressure  
Sea Level Pressure 29.82 in    
Wind  
Wind Speed 9 mph (SSE)    
Max Wind Speed 15 mph    
Max Gust Speed 25 mph    
Visibility 10 miles    
Events Rain , Thunderstorm    
Averages and records for this station are not official NWS values.
T = Trace of Precipitation, MM = Missing Value Source: NWS Daily Summary

Daily Weather History Graph

Daily Weather History Graph

Search for Another Location

Airport:

Trip Planner

Search our weather history database for the weather conditions in past years. The results will help you decide how hot, cold, wet, or windy it might be!

Date:

Astronomy

Sep. 27, 2013 Rise Set
Actual Time 7:11 AM CDT 7:05 PM CDT
Civil Twilight 6:42 AM CDT 7:34 PM CDT
Nautical Twilight 6:07 AM CDT 8:08 PM CDT
Astronomical Twilight 5:33 AM CDT 8:43 PM CDT
Moon No Moon Rise 2:58 PM CDT
Length of Visible Light 12h 52m
Length of Day
11h 53m
Last Quarter, 45% of the Moon is Illuminated
Sep 27
Last Quarter
Oct 4
New
Oct 11
First Quarter
Oct 18
Full
Oct 26
Last Quarter

Hourly Weather History & Observations

Time (CDT) Temp. Heat Index Dew Point Humidity Pressure Visibility Wind Dir Wind Speed Gust Speed Precip Events Conditions
12:13 AM 68.0 °F - 60.8 °F 78% 29.87 in 10.0 mi SE 6.9 mph - N/A   Clear
12:33 AM 69.8 °F - 62.6 °F 78% 29.87 in 10.0 mi SE 8.1 mph - N/A   Clear
12:52 AM 69.8 °F - 62.6 °F 78% 29.87 in 10.0 mi SE 8.1 mph - N/A   Clear
1:13 AM 68.0 °F - 62.6 °F 83% 29.87 in 10.0 mi SE 8.1 mph - N/A   Clear
1:33 AM 68.0 °F - 62.6 °F 83% 29.87 in 10.0 mi SE 8.1 mph - N/A   Clear
1:52 AM 68.0 °F - 62.6 °F 83% 29.87 in 10.0 mi SE 6.9 mph - N/A   Clear
2:13 AM 68.0 °F - 62.6 °F 83% 29.87 in 10.0 mi SE 8.1 mph - N/A   Clear
2:33 AM 68.0 °F - 62.6 °F 83% 29.87 in 10.0 mi SE 6.9 mph - N/A   Clear
2:52 AM 68.0 °F - 62.6 °F 83% 29.86 in 10.0 mi SE 10.4 mph - N/A   Clear
3:13 AM 68.0 °F - 62.6 °F 83% 29.86 in 10.0 mi SE 11.5 mph - N/A   Clear
3:32 AM 68.0 °F - 62.6 °F 83% 29.85 in 10.0 mi SE 10.4 mph - N/A   Clear
3:53 AM 68.0 °F - 62.6 °F 83% 29.85 in 10.0 mi SE 9.2 mph - N/A   Clear
4:13 AM 68.0 °F - 62.6 °F 83% 29.84 in 10.0 mi SE 9.2 mph - N/A   Clear
4:32 AM 68.0 °F - 62.6 °F 83% 29.84 in 10.0 mi SE 11.5 mph 17.3 mph N/A   Clear
4:53 AM 68.0 °F - 62.6 °F 83% 29.84 in 10.0 mi SE 10.4 mph 17.3 mph N/A   Clear
5:13 AM 68.0 °F - 62.6 °F 83% 29.84 in 10.0 mi SE 10.4 mph 16.1 mph N/A   Clear
5:32 AM 68.0 °F - 62.6 °F 83% 29.84 in 10.0 mi SE 10.4 mph - N/A   Clear
5:53 AM 69.8 °F - 62.6 °F 78% 29.85 in 10.0 mi SSE 10.4 mph 18.4 mph N/A   Mostly Cloudy
6:13 AM 69.8 °F - 62.6 °F 78% 29.85 in 10.0 mi SSE 10.4 mph 18.4 mph N/A   Overcast
6:32 AM 69.8 °F - 62.6 °F 78% 29.87 in 10.0 mi SSE 8.1 mph - N/A   Scattered Clouds
6:53 AM 69.8 °F - 62.6 °F 78% 29.87 in 10.0 mi SE 6.9 mph - N/A   Scattered Clouds
7:13 AM 69.8 °F - 64.4 °F 83% 29.87 in 10.0 mi SSE 9.2 mph - N/A   Light Drizzle
7:32 AM 69.8 °F - 64.4 °F 83% 29.85 in 10.0 mi SE 10.4 mph - N/A Rain Light Rain
7:52 AM 68.0 °F - 64.4 °F 88% 29.86 in 10.0 mi SSE 9.2 mph - N/A   Light Drizzle
8:13 AM 68.0 °F - 64.4 °F 88% 29.86 in 10.0 mi SSE 9.2 mph - N/A   Light Drizzle
8:32 AM 68.0 °F - 64.4 °F 88% 29.84 in 10.0 mi SE 15.0 mph 18.4 mph N/A   Scattered Clouds
8:52 AM 66.2 °F - 64.4 °F 94% 29.84 in 7.0 mi SSE 15.0 mph 23.0 mph N/A Rain Light Rain
9:13 AM 66.2 °F - 64.4 °F 94% 29.85 in 5.0 mi SSE 8.1 mph - N/A Rain Light Rain
9:32 AM 66.2 °F - 64.4 °F 94% 29.86 in 7.0 mi SSE 10.4 mph 16.1 mph N/A Rain Light Rain
9:52 AM 66.2 °F - 64.4 °F 94% 29.84 in 10.0 mi SE 12.7 mph 18.4 mph N/A Rain Rain
10:13 AM 66.2 °F - 64.4 °F 94% 29.86 in 7.0 mi SE 12.7 mph 17.3 mph N/A Rain Light Rain
10:32 AM 66.2 °F - 64.4 °F 94% 29.84 in 7.0 mi SE 12.7 mph 18.4 mph N/A Rain Light Rain
10:52 AM 68.0 °F - 64.4 °F 88% 29.86 in 10.0 mi SSE 10.4 mph 19.6 mph N/A   Scattered Clouds
11:13 AM 68.0 °F - 64.4 °F 88% 29.84 in 10.0 mi SE 11.5 mph 20.7 mph N/A Rain Light Rain
11:32 AM 69.8 °F - 64.4 °F 83% 29.85 in 10.0 mi SSE 9.2 mph 17.3 mph N/A   Mostly Cloudy
11:53 AM 69.8 °F - 64.4 °F 83% 29.84 in 10.0 mi SSE 11.5 mph 19.6 mph N/A   Scattered Clouds
12:13 PM 69.8 °F - 64.4 °F 83% 29.83 in 10.0 mi SE 10.4 mph 17.3 mph N/A   Scattered Clouds
12:32 PM 71.6 °F - 64.4 °F 78% 29.83 in 10.0 mi SSE 9.2 mph 16.1 mph N/A   Scattered Clouds
12:53 PM 71.6 °F - 66.2 °F 83% 29.83 in 10.0 mi SE 11.5 mph 18.4 mph N/A Thunderstorm Scattered Clouds
1:13 PM 73.4 °F - 66.2 °F 78% 29.80 in 10.0 mi SE 10.4 mph 21.9 mph N/A   Scattered Clouds
1:32 PM 75.2 °F - 64.4 °F 69% 29.81 in 10.0 mi SSE 9.2 mph 25.3 mph N/A   Clear
1:53 PM 77.0 °F - 64.4 °F 65% 29.78 in 10.0 mi SSE 13.8 mph 20.7 mph N/A   Clear
2:13 PM 78.8 °F - 64.4 °F 61% 29.78 in 10.0 mi SSE 12.7 mph 23.0 mph N/A   Clear
2:32 PM 80.6 °F 82.3 °F 64.4 °F 58% 29.76 in 10.0 mi SE 10.4 mph 17.3 mph N/A   Clear
2:53 PM 80.6 °F 81.8 °F 62.6 °F 54% 29.76 in 10.0 mi SSE 11.5 mph 20.7 mph N/A   Clear
3:13 PM 82.4 °F 83.4 °F 62.6 °F 51% 29.76 in 10.0 mi SSE 11.5 mph 20.7 mph N/A Thunderstorm Clear
3:32 PM 82.4 °F 82.9 °F 60.8 °F 48% 29.75 in 10.0 mi SSE 8.1 mph 19.6 mph N/A   Clear
3:53 PM 82.4 °F 82.9 °F 60.8 °F 48% 29.76 in 10.0 mi SSE 9.2 mph 20.7 mph N/A   Clear
4:13 PM 82.4 °F 82.9 °F 60.8 °F 48% 29.76 in 10.0 mi SSE 9.2 mph - N/A   Clear
4:32 PM 82.4 °F 82.9 °F 60.8 °F 48% 29.77 in 10.0 mi South 5.8 mph - N/A   Clear
4:53 PM 82.4 °F 82.9 °F 60.8 °F 48% 29.78 in 10.0 mi South 4.6 mph - N/A   Clear
5:13 PM 82.4 °F 82.5 °F 59.0 °F 45% 29.78 in 10.0 mi SSE 6.9 mph - N/A   Clear
5:32 PM 82.4 °F 82.9 °F 60.8 °F 48% 29.79 in 10.0 mi South 5.8 mph - N/A   Clear
5:53 PM 82.4 °F 82.9 °F 60.8 °F 48% 29.79 in 10.0 mi SSE 5.8 mph - N/A   Clear
6:13 PM 82.4 °F 82.9 °F 60.8 °F 48% 29.79 in 10.0 mi SSE 6.9 mph - N/A   Scattered Clouds
6:32 PM 82.4 °F 82.9 °F 60.8 °F 48% 29.79 in 10.0 mi SSE 8.1 mph - N/A   Scattered Clouds
6:53 PM 80.6 °F 81.5 °F 60.8 °F 51% 29.78 in 10.0 mi SSE 8.1 mph - N/A   Clear
7:12 PM 80.6 °F 81.5 °F 60.8 °F 51% 29.78 in 10.0 mi SSE 9.2 mph - N/A   Clear
7:33 PM 80.6 °F 81.5 °F 60.8 °F 51% 29.78 in 10.0 mi SSE 8.1 mph - N/A   Clear
7:53 PM 80.6 °F 81.5 °F 60.8 °F 51% 29.78 in 10.0 mi SSE 9.2 mph - N/A   Clear
8:12 PM 78.8 °F - 60.8 °F 54% 29.79 in 10.0 mi SSE 9.2 mph 17.3 mph N/A   Clear
8:33 PM 78.8 °F - 60.8 °F 54% 29.79 in 10.0 mi SSE 8.1 mph - N/A   Clear
8:52 PM 78.8 °F - 60.8 °F 54% 29.79 in 10.0 mi SSE 10.4 mph - N/A   Clear
9:13 PM 78.8 °F - 60.8 °F 54% 29.79 in 10.0 mi SE 6.9 mph - N/A   Scattered Clouds
9:33 PM 75.2 °F - 60.8 °F 61% 29.79 in 10.0 mi SE 9.2 mph - N/A   Clear
9:52 PM 75.2 °F - 60.8 °F 61% 29.79 in 10.0 mi SE 9.2 mph - N/A   Clear
10:13 PM 75.2 °F - 60.8 °F 61% 29.79 in 10.0 mi SSE 10.4 mph 17.3 mph N/A   Clear
10:33 PM 75.2 °F - 60.8 °F 61% 29.79 in 10.0 mi SSE 12.7 mph 19.6 mph N/A   Clear
10:52 PM 75.2 °F - 60.8 °F 61% 29.79 in 10.0 mi SSE 10.4 mph 17.3 mph N/A   Mostly Cloudy
11:13 PM 75.2 °F - 60.8 °F 61% 29.78 in 10.0 mi SSE 10.4 mph 19.6 mph N/A   Scattered Clouds
11:33 PM 75.2 °F - 60.8 °F 61% 29.77 in 10.0 mi SSE 10.4 mph 20.7 mph N/A   Scattered Clouds
11:52 PM 73.4 °F - 60.8 °F 65% 29.76 in 10.0 mi SSE 9.2 mph 18.4 mph N/A   Scattered Clouds